Location: Rounton
(54.4000°N, 1.3500°W)
Time: 05:56:08
(UTC+00:00)

A-11 Canister half - Pass Details

Date: 03 December 2021
Orbit: 1516 x 1684 km, 47.2° (Epoch: 21 January)

Event Time Altitude Azimuth Distance (km) Brightness Sun altitude
Rises 13:48:09 0° 284° (WNW) 4,903 11.8 9.7°
Reaches altitude 10° 13:51:54 10° 274° (W) 3,929 11.5 9.4°
Maximum altitude 13:59:45 27° 222° (SW) 2,830 12.0 8.9°
Drops below altitude 10° 14:07:39 10° 170° (S) 3,937 12.1 8.3°
Sets 14:11:26 0° 159° (SSE) 4,914 12.2 8.0°
